Weather History for Elizabeth City, NC

Change the Weather History Date:

Monday, March 11, 2013

  Actual Average Record
Temperature  
Mean Temperature 34 °F 49 °F  
Max Temperature 67 °F 59 °F 81 °F (1990)
Min Temperature 1 °F 38 °F 1 °F (2013)
Degree Days  
Heating Degree Days 31 16  
Month to date heating degree days 236 194  
Since 1 July heating degree days 2245 2666  
Cooling Degree Days 0 0  
Month to date cooling degree days 0 0  
Year to date cooling degree days 5 2  
Growing Degree Days 2 (Base 50)    
Moisture  
Dew Point 44 °F    
Average Humidity 76    
Maximum Humidity 100    
Minimum Humidity 52    
Precipitation  
Precipitation 0.00 in 0.11 in 2.74 in (1936)
Month to date precipitation 0.76 1.20  
Year to date precipitation 5.81 7.64  
Snow  
Snow 0.00 in - 0.00 in (2002)
Month to date snowfall T  
Since 1 July snowfall T  
Snow Depth 0.00 in    
Sea Level Pressure  
Sea Level Pressure 30.19 in    
Wind  
Wind Speed 8 mph (ESE)    
Max Wind Speed 18 mph    
Max Gust Speed 41 mph    
Visibility 5 miles    
Events Fog    
T = Trace of Precipitation, MM = Missing Value Source: NWS Daily Summary

Daily Weather History Graph

Daily Weather History Graph

Search for Another Location

Airport:

Trip Planner

Search our weather history database for the weather conditions in past years. The results will help you decide how hot, cold, wet, or windy it might be!

Date:

Astronomy

Mar. 11, 2013 Rise Set
Actual Time 7:20 AM EDT 7:08 PM EDT
Civil Twilight 6:55 AM EDT 7:34 PM EDT
Nautical Twilight 6:25 AM EDT 8:04 PM EDT
Astronomical Twilight 5:55 AM EDT 8:34 PM EDT
Moon 6:54 AM EDT (3/11) 7:16 PM EDT (3/11)
Length of Visible Light 12h 39m
Length of Day
11h 47m
Waning Crescent, 0% of the Moon is Illuminated
Mar 11
Waning Crescent
Mar 11
New
Mar 19
First Quarter
Mar 27
Full
Apr 3
Last Quarter

Hourly Weather History & Observations

Time (EDT) Temp. Windchill Dew Point Humidity Pressure Visibility Wind Dir Wind Speed Gust Speed Precip Events Conditions
12:54 AM 45.0 °F - 41.0 °F 86% 30.28 in 6.0 mi Calm Calm - N/A   Clear
1:54 AM 44.1 °F 41.5 °F 39.9 °F 85% 30.28 in 7.0 mi ENE 4.6 mph - N/A   Clear
2:28 AM 41.0 °F - 39.2 °F 93% 30.27 in 1.8 mi Calm Calm - N/A   Clear
2:45 AM 44.6 °F - 41.0 °F 87% 30.26 in 3.0 mi Calm Calm - N/A   Clear
2:54 AM 45.0 °F - 39.9 °F 82% 30.27 in 3.0 mi Calm Calm - N/A   Haze
3:14 AM 41.0 °F - 39.2 °F 93% 30.26 in 1.5 mi Calm Calm - N/A   Clear
3:21 AM 42.8 °F - 39.2 °F 87% 30.26 in 0.5 mi Calm Calm - N/A Fog Fog
3:54 AM 41.0 °F - 37.0 °F 86% 30.25 in 0.2 mi Calm Calm - N/A Fog Fog
4:54 AM 39.0 °F - 36.0 °F 89% 30.22 in 1.2 mi Calm Calm - N/A   Mostly Cloudy
5:03 AM 41.0 °F - 37.4 °F 87% 30.22 in 0.5 mi Calm Calm - N/A Fog Fog
5:14 AM - - - N/A% 30.23 in 0.2 mi Calm Calm - N/A Fog Light Freezing Fog
5:23 AM - - - N/A% 30.22 in 0.2 mi Calm Calm - N/A Fog Light Freezing Fog
5:54 AM - - - N/A% 30.23 in 0.5 mi Calm Calm - N/A Fog Light Freezing Fog
6:25 AM - - - N/A% 30.23 in 0.2 mi Calm Calm - N/A Fog Light Freezing Fog
6:40 AM - - - N/A% 30.23 in 1.0 mi Calm Calm - N/A   Scattered Clouds
6:45 AM - - - N/A% 30.23 in 3.0 mi Calm Calm - N/A   Scattered Clouds
6:47 AM - - - N/A% 30.23 in 1.8 mi Calm Calm - N/A   Scattered Clouds
6:54 AM - - - N/A% 30.23 in 0.5 mi Calm Calm - N/A Fog Light Freezing Fog
7:03 AM - - - N/A% 30.23 in 2.0 mi Calm Calm - N/A   Partly Cloudy
7:12 AM - - - N/A% 30.22 in 1.0 mi East 3.5 mph - N/A   Clear
7:31 AM - - - N/A% 30.22 in 3.0 mi ESE 3.5 mph - N/A   Clear
7:54 AM - - - N/A% 30.21 in 6.0 mi ESE 5.8 mph - N/A   Haze
8:54 AM - - - N/A% 30.24 in 10.0 mi ESE 3.5 mph - N/A   Clear
9:54 AM - - - N/A% 30.23 in - ESE 8.1 mph - N/A   Clear
10:54 AM - - - N/A% 30.22 in 10.0 mi ESE 9.2 mph - N/A   Clear
11:54 AM - - - N/A% 30.19 in 10.0 mi SE 11.5 mph - N/A   Clear
12:54 PM 64.0 °F - 51.1 °F 63% 30.17 in 10.0 mi ESE 13.8 mph - N/A   Clear
1:54 PM 64.0 °F - 50.0 °F 60% 30.15 in 10.0 mi ESE 17.3 mph - N/A   Clear
2:54 PM 64.9 °F - 50.0 °F 58% 30.13 in 10.0 mi ESE 13.8 mph - N/A   Clear
3:54 PM 61.0 °F - 50.0 °F 67% 30.12 in 10.0 mi East 11.5 mph - N/A   Scattered Clouds
4:54 PM 64.9 °F - 48.0 °F 54% 30.09 in 10.0 mi SSE 16.1 mph 24.2 mph N/A   Clear
5:54 PM 64.0 °F - 46.9 °F 54% 30.07 in 10.0 mi SSE 17.3 mph 26.5 mph N/A   Clear
7:54 PM 57.9 °F - 48.0 °F 70% 30.09 in 10.0 mi ESE 8.1 mph - N/A   Overcast
8:54 PM 57.0 °F - 48.0 °F 72% 30.07 in 10.0 mi SE 6.9 mph - N/A   Partly Cloudy
9:04 PM 57.2 °F - 48.2 °F 72% 30.07 in 10.0 mi SE 8.1 mph 41.4 mph N/A   Clear
9:54 PM 57.0 °F - 48.9 °F 74% 30.05 in 10.0 mi SSE 10.4 mph 19.6 mph N/A   Clear
10:54 PM 57.9 °F - 48.9 °F 72% 30.05 in 10.0 mi SSE 10.4 mph - N/A   Clear
11:54 PM 57.9 °F - 50.0 °F 75% 30.04 in 10.0 mi SE 6.9 mph - N/A   Mostly Cloudy